Flag for U.S.A. Weather past 2 weeks in Jackson, Mississippi, U.S.A.

64 °F

Light rain. Fog.

Feels Like: 64 °F
Forecast: 52 / 63 °F
Wind: 3 mph from Northwest

Location: Hawkins Field

Current Time: Nov 30, 2015 at 10:47:31 PM

Latest Report: Nov 30, 2015 at 9:53 PM

Visibility: 6 mi

Pressure: 29.98 "Hg

Humidity: 97%

Dew point: 63 °F

Location of JacksonLocation

Historic Weather in Jackson — Graph


Jackson temperature yesterday

Maximum temperature yesterday: 71 °F (at 10:53 AM)
Minimum temperature yesterday: 53 °F (at 8:00 PM)
Average temperature yesterday: 63 °F

Past Weeks' High & Low Weather Summary

High81 °F (Nov 17, 1:53 PM)100% (Nov 28, 5:53 AM)30.40 "Hg (Nov 28, 5:53 AM)
Low29 °F (Nov 23, 4:53 AM)19% (Nov 23, 2:53 PM)29.67 "Hg (Nov 17, 10:03 PM)
Average58 °F73%30.13 "Hg
* Reported Nov 15 9:53 PM — Nov 30 9:04 PM, Jackson, Weather by CustomWeather, © 2015

Note: Actual official high and low records may vary slightly from our data, if they occured in-between our weather recording intervals... More about our weather records


Jackson weather history for previous 24 hours

Time TempWeatherWind HumidityBarometerVisibility
9:04 PM
Mon, Nov 30
64 °FLight rain. Fog.9 mph97%30.01 "Hg4 mi
8:53 PM65 °FRain. Fog.10 mph94%29.99 "Hg2 mi
7:53 PM69 °FMostly cloudy.7 mph81%29.96 "Hg9 mi
6:53 PM70 °FMostly cloudy.7 mph76%29.95 "Hg10 mi
5:53 PM67 °FPassing clouds.No wind90%29.94 "Hg10 mi
4:53 PM68 °FPartly sunny.No wind84%29.94 "Hg10 mi
3:53 PM74 °FOvercast.3 mph56%29.94 "Hg10 mi
2:53 PM75 °FOvercast.6 mph58%29.94 "Hg10 mi
1:53 PM75 °FPartly sunny.7 mph60%29.94 "Hg10 mi
12:53 PM73 °FBroken clouds.8 mph64%29.96 "Hg10 mi
11:53 AM74 °FPartly sunny.8 mph62%29.98 "Hg10 mi
10:53 AM71 °FPartly sunny.6 mph71%30.02 "Hg10 mi
9:53 AM67 °FSunny.6 mph87%30.03 "Hg8 mi
8:53 AM62 °FFog.7 mph96%30.03 "Hg3 mi
7:53 AM60 °FFog.N/A93%30.02 "Hg2 mi
6:53 AM57 °FFog.3 mph96%30.01 "Hg4 mi
5:53 AM57 °FLow clouds.No wind96%30.00 "Hg7 mi
4:53 AM57 °FLow clouds.5 mph93%30.01 "Hg10 mi
3:53 AM56 °FLow clouds.No wind97%30.01 "Hg10 mi
3:04 AM56 °FMostly cloudy.3 mph97%30.03 "Hg10 mi
2:53 AM57 °FMostly cloudy.3 mph93%30.01 "Hg10 mi
1:53 AM56 °FPartly cloudy.No wind97%30.02 "Hg10 mi
12:53 AM56 °FLow clouds.No wind93%30.03 "Hg10 mi
11:53 PM
Sun, Nov 29
56 °FOvercast.3 mph93%30.04 "Hg10 mi
10:53 PM55 °FMostly cloudy.No wind96%30.06 "Hg10 mi
Weather by CustomWeather, © 2015

See weather overviewHow to use our weather pages